Location: Wingville
(42.9917°N, 90.4915°W)
Time: 14:41:26
(UTC+00:00)

EO-79 - Pass Details

Date: 05 July 2022
Orbit: 588 x 603 km, 98.0° (Epoch: 18 August)

Event Time Altitude Azimuth Distance (km) Brightness Sun altitude
Rises 08:03:45 0° 9° (N) 2,859 ? -18.9°
Reaches altitude 10° 08:05:56 10° 5° (N) 1,954 ? -18.7°
Maximum altitude 08:10:07 60° 286° (WNW) 695 ? -18.4°
Enters shadow 08:11:27 39° 226° (SW) 908 ? -18.2°
